Time,TemperatureF,DewpointF,PressureIn,WindDirection,WindDirectionDegrees,WindSpeedMPH,WindSpeedGustMPH,Humidity,HourlyPrecipIn,Conditions,Clouds,dailyrainin,SoftwareType,DateUTC
2013-02-04 00:00:00,38.5,36.1,30.10,South,181,0.0,0.0,91,0.00,CLR,,0.00,WeatherDisplay:10.37,2013-02-04 08:00:00,
2013-02-04 00:15:00,38.2,35.8,30.10,South,181,0.0,0.0,91,0.00,CLR,,0.00,WeatherDisplay:10.37,2013-02-04 08:15:00,
2013-02-04 00:30:00,37.9,35.5,30.09,South,181,0.0,0.0,91,0.00,CLR,,0.00,WeatherDisplay:10.37,2013-02-04 08:30:00,
2013-02-04 00:45:00,37.7,35.3,30.09,South,181,0.0,0.0,91,0.00,CLR,,0.00,WeatherDisplay:10.37,2013-02-04 08:45:00,
2013-02-04 01:00:00,37.5,35.4,30.09,South,181,0.0,0.0,92,0.00,CLR,,0.00,WeatherDisplay:10.37,2013-02-04 09:00:00,
2013-02-04 01:15:00,37.3,35.2,30.09,South,181,0.0,0.0,92,0.00,CLR,,0.00,WeatherDisplay:10.37,2013-02-04 09:15:00,
2013-02-04 01:30:00,37.0,34.9,30.09,South,181,0.0,0.0,92,0.00,CLR,,0.00,WeatherDisplay:10.37,2013-02-04 09:30:00,
2013-02-04 01:45:00,37.0,34.9,30.09,South,181,0.0,0.0,92,0.00,CLR,,0.00,WeatherDisplay:10.37,2013-02-04 09:45:00,
2013-02-04 02:00:00,36.9,34.8,30.09,South,181,0.0,0.0,92,0.00,CLR,,0.00,WeatherDisplay:10.37,2013-02-04 10:00:00,
2013-02-04 02:15:00,36.8,34.7,30.09,South,181,0.0,0.0,92,0.00,CLR,,0.00,WeatherDisplay:10.37,2013-02-04 10:15:00,
2013-02-04 02:30:00,36.6,34.5,30.08,South,181,0.0,0.0,92,0.00,CLR,,0.00,WeatherDisplay:10.37,2013-02-04 10:30:00,
2013-02-04 02:45:00,36.5,34.4,30.08,South,181,0.0,0.0,92,0.00,CLR,,0.00,WeatherDisplay:10.37,2013-02-04 10:45:00,
2013-02-04 03:00:00,36.3,34.2,30.08,South,181,0.0,0.0,92,0.00,CLR,,0.00,WeatherDisplay:10.37,2013-02-04 11:00:00,
2013-02-04 03:15:00,36.3,34.2,30.07,South,181,0.0,0.0,92,0.00,CLR,,0.00,WeatherDisplay:10.37,2013-02-04 11:15:00,
2013-02-04 03:30:00,36.2,34.1,30.07,South,181,0.0,0.0,92,0.00,CLR,,0.00,WeatherDisplay:10.37,2013-02-04 11:30:00,
2013-02-04 03:45:00,36.0,33.9,30.07,South,181,0.0,0.0,92,0.00,CLR,,0.00,WeatherDisplay:10.37,2013-02-04 11:45:00,
2013-02-04 04:00:00,35.9,33.8,30.07,South,181,0.0,0.0,92,0.00,CLR,,0.00,WeatherDisplay:10.37,2013-02-04 12:00:00,
2013-02-04 04:15:00,35.8,33.7,30.06,South,181,0.0,0.0,92,0.00,CLR,,0.00,WeatherDisplay:10.37,2013-02-04 12:15:00,
2013-02-04 04:30:00,35.6,33.5,30.06,South,181,0.0,0.0,92,0.00,CLR,,0.00,WeatherDisplay:10.37,2013-02-04 12:30:00,
2013-02-04 04:45:00,35.6,33.5,30.06,South,181,0.0,0.0,92,0.00,CLR,,0.00,WeatherDisplay:10.37,2013-02-04 12:45:00,
2013-02-04 05:00:00,35.5,33.4,30.06,South,181,0.0,0.0,92,0.00,CLR,,0.00,WeatherDisplay:10.37,2013-02-04 13:00:00,
2013-02-04 05:15:00,35.3,33.2,30.06,South,181,0.0,0.0,92,0.00,CLR,,0.00,WeatherDisplay:10.37,2013-02-04 13:15:00,
2013-02-04 05:30:00,35.2,33.1,30.06,South,181,0.0,0.0,92,0.00,CLR,,0.00,WeatherDisplay:10.37,2013-02-04 13:30:00,
2013-02-04 05:45:00,35.0,32.9,30.06,South,181,0.0,0.0,92,0.00,CLR,,0.00,WeatherDisplay:10.37,2013-02-04 13:45:00,
2013-02-04 06:00:00,34.9,32.8,30.06,South,181,0.0,0.0,92,0.00,CLR,,0.00,WeatherDisplay:10.37,2013-02-04 14:00:00,
2013-02-04 06:15:00,34.7,32.6,30.07,South,181,0.0,0.0,92,0.00,CLR,,0.00,WeatherDisplay:10.37,2013-02-04 14:15:00,
2013-02-04 06:30:00,34.6,32.5,30.07,South,181,0.0,0.0,92,0.00,CLR,,0.00,WeatherDisplay:10.37,2013-02-04 14:30:00,
2013-02-04 06:45:00,34.4,32.3,30.07,South,181,0.0,0.0,92,0.00,CLR,,0.00,WeatherDisplay:10.37,2013-02-04 14:45:00,
2013-02-04 07:00:00,34.3,32.5,30.08,South,181,0.0,0.0,93,0.00,CLR,,0.00,WeatherDisplay:10.37,2013-02-04 15:00:00,
2013-02-04 07:15:00,34.1,32.3,30.09,South,181,0.0,0.0,93,0.00,CLR,,0.00,WeatherDisplay:10.37,2013-02-04 15:15:00,
2013-02-04 07:30:00,34.1,32.3,30.09,South,181,0.0,0.0,93,0.00,CLR,,0.00,WeatherDisplay:10.37,2013-02-04 15:30:00,
2013-02-04 07:45:00,34.1,32.3,30.09,South,181,0.0,0.0,93,0.00,CLR,,0.00,WeatherDisplay:10.37,2013-02-04 15:45:00,
2013-02-04 08:00:00,34.3,32.5,30.09,South,181,0.0,0.0,93,0.00,CLR,,0.00,WeatherDisplay:10.37,2013-02-04 16:00:00,
2013-02-04 08:15:00,34.3,32.5,30.09,South,181,0.0,0.0,93,0.00,CLR,,0.00,WeatherDisplay:10.37,2013-02-04 16:15:00,
2013-02-04 08:30:00,34.4,32.6,30.09,South,181,0.0,0.0,93,0.00,CLR,,0.00,WeatherDisplay:10.37,2013-02-04 16:30:00,
2013-02-04 08:45:00,34.7,32.9,30.10,South,181,0.0,0.0,93,0.00,CLR,,0.00,WeatherDisplay:10.37,2013-02-04 16:45:00,
2013-02-04 09:00:00,35.0,33.2,30.10,South,181,0.0,0.0,93,0.00,CLR,,0.00,WeatherDisplay:10.37,2013-02-04 17:00:00,
2013-02-04 09:15:00,35.5,33.7,30.11,South,181,0.0,0.0,93,0.00,CLR,,0.00,WeatherDisplay:10.37,2013-02-04 17:15:00,
2013-02-04 09:30:00,36.2,34.6,30.11,South,181,0.0,0.0,94,0.00,CLR,,0.00,WeatherDisplay:10.37,2013-02-04 17:30:00,
2013-02-04 09:45:00,38.0,36.5,30.11,South,181,0.0,0.0,94,0.00,CLR,,0.00,WeatherDisplay:10.37,2013-02-04 17:45:00,
2013-02-04 10:00:00,41.1,39.8,30.10,South,181,0.0,0.0,95,0.00,CLR,,0.00,WeatherDisplay:10.37,2013-02-04 18:00:00,
2013-02-04 10:15:00,43.1,41.8,30.10,South,181,0.0,0.0,95,0.00,CLR,,0.00,WeatherDisplay:10.37,2013-02-04 18:15:00,
2013-02-04 10:30:00,44.5,43.2,30.10,South,181,0.0,0.0,95,0.00,CLR,,0.00,WeatherDisplay:10.37,2013-02-04 18:30:00,
2013-02-04 10:45:00,45.8,44.4,30.09,South,181,0.0,0.0,95,0.00,CLR,,0.00,WeatherDisplay:10.37,2013-02-04 18:45:00,
2013-02-04 11:00:00,46.8,45.4,30.08,South,181,0.0,0.0,95,0.00,CLR,,0.00,WeatherDisplay:10.37,2013-02-04 19:00:00,
2013-02-04 11:15:00,47.9,46.5,30.08,South,181,0.0,0.0,95,0.00,CLR,,0.00,WeatherDisplay:10.37,2013-02-04 19:15:00,
2013-02-04 11:30:00,49.4,47.1,30.07,South,181,0.0,0.0,92,0.00,CLR,,0.00,WeatherDisplay:10.37,2013-02-04 19:30:00,
2013-02-04 11:45:00,50.8,47.7,30.06,South,181,0.0,0.0,89,0.00,CLR,,0.00,WeatherDisplay:10.37,2013-02-04 19:45:00,
2013-02-04 12:00:00,52.5,47.8,30.05,South,181,0.0,0.0,84,0.00,CLR,,0.00,WeatherDisplay:10.37,2013-02-04 20:00:00,
2013-02-04 12:15:00,53.9,47.8,30.04,South,181,0.0,0.0,80,0.00,CLR,,0.00,WeatherDisplay:10.37,2013-02-04 20:15:00,
2013-02-04 12:30:00,55.1,47.7,30.03,South,181,0.0,0.0,76,0.00,CLR,,0.00,WeatherDisplay:10.37,2013-02-04 20:30:00,
2013-02-04 12:45:00,56.2,48.0,30.03,South,181,0.0,0.0,74,0.00,CLR,,0.00,WeatherDisplay:10.37,2013-02-04 20:45:00,
2013-02-04 13:00:00,58.3,48.2,30.01,South,181,0.0,0.0,69,0.00,CLR,,0.00,WeatherDisplay:10.37,2013-02-04 21:00:00,
2013-02-04 13:15:00,62.4,47.9,30.01,South,181,0.0,1.0,59,0.00,CLR,,0.00,WeatherDisplay:10.37,2013-02-04 21:15:00,
2013-02-04 13:30:00,61.2,49.8,30.00,SSW,203,0.0,1.0,66,0.00,CLR,,0.00,WeatherDisplay:10.37,2013-02-04 21:30:00,
2013-02-04 13:45:00,62.3,50.0,30.00,WNW,283,0.0,1.0,64,0.00,CLR,,0.00,WeatherDisplay:10.37,2013-02-04 21:45:00,
2013-02-04 14:00:00,62.6,48.0,29.99,WSW,242,0.0,1.0,59,0.00,CLR,,0.00,WeatherDisplay:10.37,2013-02-04 22:00:00,
2013-02-04 14:15:00,62.7,48.2,29.98,West,266,0.0,1.0,59,0.00,CLR,,0.00,WeatherDisplay:10.37,2013-02-04 22:15:00,
2013-02-04 14:30:00,62.4,47.4,29.98,West,266,0.0,1.0,58,0.00,CLR,,0.00,WeatherDisplay:10.37,2013-02-04 22:30:00,
2013-02-04 14:45:00,62.3,47.8,29.98,West,265,0.0,0.0,59,0.00,CLR,,0.00,WeatherDisplay:10.37,2013-02-04 22:45:00,
2013-02-04 15:00:00,61.8,48.2,29.98,West,265,0.0,0.0,61,0.00,CLR,,0.00,WeatherDisplay:10.37,2013-02-04 23:00:00,
2013-02-04 15:15:00,61.0,48.3,29.98,West,265,0.0,0.0,63,0.00,CLR,,0.00,WeatherDisplay:10.37,2013-02-04 23:15:00,
2013-02-04 15:30:00,60.5,48.2,29.98,West,265,0.0,0.0,64,0.00,CLR,,0.00,WeatherDisplay:10.37,2013-02-04 23:30:00,
2013-02-04 15:45:00,59.9,48.9,29.98,West,265,0.0,0.0,67,0.00,CLR,,0.00,WeatherDisplay:10.37,2013-02-04 23:45:00,
2013-02-04 16:00:00,59.5,49.3,29.98,West,265,0.0,0.0,69,0.00,CLR,,0.00,WeatherDisplay:10.37,2013-02-05 00:00:00,
2013-02-04 16:15:00,58.9,49.5,29.99,West,265,0.0,0.0,71,0.00,CLR,,0.00,WeatherDisplay:10.37,2013-02-05 00:15:00,
2013-02-04 16:30:00,58.1,49.5,29.99,West,265,0.0,0.0,73,0.00,CLR,,0.00,WeatherDisplay:10.37,2013-02-05 00:30:00,
2013-02-04 16:45:00,57.3,49.4,29.98,West,265,0.0,0.0,75,0.00,CLR,,0.00,WeatherDisplay:10.37,2013-02-05 00:45:00,
2013-02-04 17:00:00,56.5,49.0,29.99,West,265,0.0,0.0,76,0.00,CLR,,0.00,WeatherDisplay:10.37,2013-02-05 01:00:00,
2013-02-04 17:15:00,55.8,49.0,29.99,West,265,0.0,0.0,78,0.00,CLR,,0.00,WeatherDisplay:10.37,2013-02-05 01:15:00,
2013-02-04 17:30:00,55.0,48.9,29.99,West,265,0.0,0.0,80,0.00,CLR,,0.00,WeatherDisplay:10.37,2013-02-05 01:30:00,
2013-02-04 17:45:00,54.1,48.1,30.00,West,265,0.0,0.0,80,0.00,CLR,,0.00,WeatherDisplay:10.37,2013-02-05 01:45:00,
2013-02-04 18:00:00,53.2,47.8,30.00,West,265,0.0,0.0,82,0.00,CLR,,0.00,WeatherDisplay:10.37,2013-02-05 02:00:00,
2013-02-04 18:15:00,52.3,47.3,30.00,West,265,0.0,0.0,83,0.00,CLR,,0.00,WeatherDisplay:10.37,2013-02-05 02:15:00,
2013-02-04 18:30:00,51.4,46.7,30.00,West,265,0.0,0.0,84,0.00,CLR,,0.00,WeatherDisplay:10.37,2013-02-05 02:30:00,
2013-02-04 18:45:00,50.6,46.3,30.01,West,265,0.0,0.0,85,0.00,CLR,,0.00,WeatherDisplay:10.37,2013-02-05 02:45:00,
2013-02-04 19:00:00,49.9,45.8,30.01,West,265,0.0,0.0,86,0.00,CLR,,0.00,WeatherDisplay:10.37,2013-02-05 03:00:00,
2013-02-04 19:15:00,49.2,45.5,30.01,West,265,0.0,0.0,87,0.00,CLR,,0.00,WeatherDisplay:10.37,2013-02-05 03:15:00,
2013-02-04 19:30:00,48.5,44.8,30.01,West,265,0.0,0.0,87,0.00,CLR,,0.00,WeatherDisplay:10.37,2013-02-05 03:30:00,
2013-02-04 19:45:00,48.0,44.6,30.01,West,265,0.0,0.0,88,0.00,CLR,,0.00,WeatherDisplay:10.37,2013-02-05 03:45:00,
2013-02-04 20:00:00,47.3,43.9,30.02,West,265,0.0,0.0,88,0.00,CLR,,0.00,WeatherDisplay:10.37,2013-02-05 04:00:00,
2013-02-04 20:15:00,46.7,43.3,30.02,West,265,0.0,0.0,88,0.00,CLR,,0.00,WeatherDisplay:10.37,2013-02-05 04:15:00,
2013-02-04 20:30:00,46.1,43.0,30.02,West,265,0.0,0.0,89,0.00,CLR,,0.00,WeatherDisplay:10.37,2013-02-05 04:30:00,
2013-02-04 20:45:00,45.7,42.6,30.02,West,265,0.0,0.0,89,0.00,CLR,,0.00,WeatherDisplay:10.37,2013-02-05 04:45:00,
2013-02-04 21:00:00,45.4,42.3,30.03,West,265,0.0,0.0,89,0.00,CLR,,0.00,WeatherDisplay:10.37,2013-02-05 05:00:00,
2013-02-04 21:15:00,45.1,42.1,30.03,West,265,0.0,0.0,89,0.00,CLR,,0.00,WeatherDisplay:10.37,2013-02-05 05:15:00,
2013-02-04 21:30:00,44.8,42.0,30.03,West,265,0.0,0.0,90,0.00,CLR,,0.00,WeatherDisplay:10.37,2013-02-05 05:30:00,
2013-02-04 21:45:00,44.6,41.8,30.03,West,265,0.0,0.0,90,0.00,CLR,,0.00,WeatherDisplay:10.37,2013-02-05 05:45:00,
2013-02-04 22:00:00,44.3,41.6,30.03,West,265,0.0,0.0,90,0.00,CLR,,0.00,WeatherDisplay:10.37,2013-02-05 06:00:00,
2013-02-04 22:15:00,44.1,41.6,30.03,West,265,0.0,0.0,91,0.00,CLR,,0.00,WeatherDisplay:10.37,2013-02-05 06:15:00,
2013-02-04 22:30:00,43.9,41.4,30.02,West,265,0.0,0.0,91,0.00,CLR,,0.00,WeatherDisplay:10.37,2013-02-05 06:30:00,
2013-02-04 22:45:00,43.5,41.0,30.03,West,265,0.0,0.0,91,0.00,CLR,,0.00,WeatherDisplay:10.37,2013-02-05 06:45:00,
2013-02-04 23:00:00,43.2,40.8,30.03,West,265,0.0,0.0,91,0.00,CLR,,0.00,WeatherDisplay:10.37,2013-02-05 07:00:00,
2013-02-04 23:15:00,42.8,40.4,30.03,West,265,0.0,0.0,91,0.00,CLR,,0.00,WeatherDisplay:10.37,2013-02-05 07:15:00,
2013-02-04 23:30:00,42.6,40.1,30.03,West,265,0.0,0.0,91,0.00,CLR,,0.00,WeatherDisplay:10.37,2013-02-05 07:30:00,
2013-02-04 23:45:00,42.2,39.8,30.03,West,265,0.0,0.0,91,0.00,CLR,,0.00,WeatherDisplay:10.37,2013-02-05 07:45:00,